Regional Weather Roundup
Issued by NWS Raleigh/Durham, NC

Home | Current Version | Previous Version | Text Only | Print | Product List | Glossary On
Versions: 1 2 3 4 5 6 7 8 9 10 11 12 13 14 15 16 17 18 19 20 21 22 23 24 25 26 27 28 29 30 31 32 33 34 35 36 37 38 39 40 41 42 43 44 45 46 47 48 49 50
000
ASUS42 KRAH 201610
RWRRAH
NORTH CAROLINA WEATHER ROUNDUP
NATIONAL WEATHER SERVICE RALEIGH NC
1200 PM EDT SUN AUG 20 2017

NOTE: "FAIR" INDICATES FEW OR NO CLOUDS BELOW 12,000 FEET WITH NO
SIGNIFICANT WEATHER AND/OR OBSTRUCTIONS TO VISIBILITY.

NCZ001-053-055-056-065-067-201700-
WESTERN NORTH CAROLINA

CITY           SKY/WX    TMP DP  RH WIND       PRES   REMARKS
ASHEVILLE      SUNNY     81  66  60 S3        30.22R
JEFFERSON      SUNNY     76  60  58 CALM      30.27S
MORGANTON      SUNNY     83  66  54 CALM      30.21R
HICKORY        SUNNY     84  69  60 N5        30.16S
RUTHERFORDTON  SUNNY     85  68  57 CALM      30.17R
MOUNT AIRY     SUNNY     85  66  52 E5        30.19S
BOONE          SUNNY     77  61  58 CALM      30.28R
$$

NCZ021-022-025-041-071-084-088-201700-
CENTRAL NORTH CAROLINA

CITY           SKY/WX    TMP DP  RH WIND       PRES   REMARKS
CHARLOTTE      MOSUNNY   89  70  53 VRB5      30.13S
GREENSBORO     MOSUNNY   86  66  51 VRB5      30.14S
WINSTON-SALEM  SUNNY     86  69  56 N7        30.16R
RALEIGH-DURHAM MOSUNNY   90  67  46 VRB3      30.13R
FORT BRAGG     MOSUNNY   89  72  56 NE3       30.10R HX  96
FAYETTEVILLE   MOSUNNY   89  75  63 NE5       30.10S HX  99
BURLINGTON     SUNNY     89  67  47 NE9       30.13R
LAURINBURG     MOSUNNY   90  77  65 E7        30.11R HX 103
$$

NCZ011-015-027-028-043-044-047-080-103-201700-
NORTHEASTERN NORTH CAROLINA

CITY           SKY/WX    TMP DP  RH WIND       PRES   REMARKS
ROCKY MT-WILSO SUNNY     89  71  55 NE6       30.11S HX  95
GREENVILLE     SUNNY     90  72  55 N5        30.11S HX  96
WASHINGTON     MOSUNNY   86  74  67 CALM      30.10F
ELIZABETH CITY SUNNY     89  75  63 NE6       30.10S HX  99
MANTEO         CLOUDY    84  75  75 CALM      30.11R
CAPE HATTERAS  CLOUDY    80  77  90 SW5       30.11R
$$

NCZ078-087-090-091-093-098-101-201700-
SOUTHEASTERN NORTH CAROLINA

CITY           SKY/WX    TMP DP  RH WIND       PRES   REMARKS
LUMBERTON      MOSUNNY   88  75  65 SE6       30.09S HX  97
GOLDSBORO      MOSUNNY   90  73  58 VRB5      30.10R HX  98
KENANSVILLE    PTSUNNY   88  73  62 E5        30.10F HX  96
NEW BERN       MOSUNNY   86  76  71 CALM      30.11S HX  96
CHERRY POINT   CLOUDY    86  76  71 CALM      30.10F HX  96
BEAUFORT       CLOUDY    83  78  85 NW5       30.09F
JACKSONVILLE   PTSUNNY   84  79  85 NE6       30.09F HX  96
WILMINGTON     PTSUNNY   86  78  77 E8        30.09F HX  98
$$




USA.gov is the U.S. government's official web portal to all federal, state and local government web resources and services.